Joplin, MO

10:45 PM CDT on October 23, 2019 (GMT -0500)
Joplin Regional

Weather History for KJLN - August, 2019

Change the Weather History Date:

Friday, August 2, 2019

  Actual Average Record
Temperature  
Mean Temperature 76 °F 81 °F  
Max Temperature 79 °F 92 °F 110 °F (2011)
Min Temperature 73 °F 70 °F 55 °F (1973)
Degree Days  
Heating Degree Days 0 0  
Month to date heating degree days 0 0  
Since 1 June heating degree days 1 5  
Since 1 July heating degree days 0 0  
Cooling Degree Days 11 16  
Month to date cooling degree days 22 32  
Year to date cooling degree days 873 1003  
Since 1 June cooling degree days 720 823  
Growing Degree Days 26 (Base 50)    
Moisture  
Dew Point 72 °F    
Average Humidity 90    
Maximum Humidity 94    
Minimum Humidity 85    
Precipitation  
Precipitation 0.11 in 0.10 in 1.99 in (1981)
Month to date precipitation 0.75 0.19  
Year to date precipitation 43.66 27.81  
Sea Level Pressure  
Sea Level Pressure 30.04 in    
Wind  
Wind Speed 3 mph (SSE)    
Max Wind Speed 10 mph    
Max Gust Speed 13 mph    
Visibility 9 miles    
Events Rain    
T = Trace of Precipitation, MM = Missing Value Source: NWS Daily Summary

Daily Weather History Graph

Daily Weather History Graph

Search for Another Location

Airport or City:

Astronomy

Aug. 02, 2019 Rise Set
Actual Time 6:23 AM CDT 8:24 PM CDT
Civil Twilight 5:54 AM CDT 8:53 PM CDT
Nautical Twilight 5:19 AM CDT 9:27 PM CDT
Astronomical Twilight 4:42 AM CDT 10:05 PM CDT
Moon 8:02 AM CDT (8/2) 9:55 PM CDT (8/2)
Length of Visible Light 14h 58m
Length of Day
14h 00m
Waxing Crescent, 4% of the Moon is Illuminated
Aug 2
Waxing Crescent
Aug 7
First Quarter
Aug 15
Full
Aug 23
Last Quarter
Aug 30
New

Hourly Weather History & Observations

Time (CDT) Temp. Dew Point Humidity Pressure Visibility Wind Dir Wind Speed Gust Speed Precip Events Conditions
12:53 AM 73.9 °F 70.0 °F 87% 30.07 in 10.0 mi Calm Calm - N/A   Mostly Cloudy
1:53 AM 73.0 °F 70.0 °F 90% 30.06 in 10.0 mi ESE 4.6 mph - N/A   Mostly Cloudy
2:53 AM 73.9 °F 70.0 °F 87% 30.03 in 10.0 mi ESE 5.8 mph - N/A   Overcast
3:53 AM 73.0 °F 70.0 °F 90% 30.01 in 10.0 mi ESE 6.9 mph - N/A   Overcast
4:53 AM 73.0 °F 70.0 °F 90% 30.01 in 10.0 mi ESE 4.6 mph - N/A   Mostly Cloudy
5:53 AM 73.0 °F 70.0 °F 90% 30.02 in 10.0 mi Calm Calm - N/A   Overcast
6:53 AM 73.0 °F 70.0 °F 90% 30.04 in 10.0 mi Calm Calm - N/A   Mostly Cloudy
7:53 AM 73.9 °F 71.1 °F 91% 30.07 in 10.0 mi Calm Calm - N/A   Overcast
8:53 AM 75.0 °F 71.1 °F 87% 30.06 in 10.0 mi ESE 4.6 mph - N/A   Overcast
9:53 AM 75.9 °F 71.1 °F 85% 30.07 in 10.0 mi SSE 4.6 mph - N/A   Mostly Cloudy
10:19 AM 75.0 °F 72.0 °F 90% 30.12 in 10.0 mi West 8.1 mph - N/A   Overcast
10:46 AM 75.0 °F 72.0 °F 90% 30.11 in 3.0 mi WSW 6.9 mph - 0.04 in Rain Light Rain
10:49 AM 73.4 °F 71.6 °F 94% 30.11 in 1.8 mi SSW 6.9 mph - 0.08 in Rain Heavy Rain
10:53 AM 73.9 °F 72.0 °F 93% 30.09 in 1.2 mi SSW 6.9 mph - 0.10 in Rain Heavy Rain
11:00 AM 73.9 °F 72.0 °F 93% 30.11 in 3.0 mi SW 8.1 mph - 0.00 in Rain Light Rain
11:53 AM 75.0 °F 72.0 °F 90% 30.07 in 10.0 mi Variable 3.5 mph - 0.01 in Rain Light Rain
12:18 PM 75.0 °F 73.0 °F 94% 30.09 in 10.0 mi Calm Calm - 0.00 in Rain Light Rain
12:48 PM 75.2 °F 71.6 °F 89% 30.08 in 10.0 mi WSW 4.6 mph - 0.00 in   Mostly Cloudy
12:53 PM 75.9 °F 72.0 °F 87% 30.05 in 10.0 mi SW 4.6 mph - 0.00 in   Mostly Cloudy
1:11 PM 75.9 °F 73.0 °F 91% 30.08 in 10.0 mi South 4.6 mph - N/A   Overcast
1:53 PM 77.0 °F 73.0 °F 88% 30.02 in 10.0 mi SSE 5.8 mph - N/A   Mostly Cloudy
2:53 PM 78.1 °F 73.0 °F 84% 30.01 in 10.0 mi SSW 4.6 mph - 0.00 in Rain Light Rain
3:53 PM 78.1 °F 72.0 °F 81% 30.00 in 10.0 mi Calm Calm - 0.00 in   Mostly Cloudy
4:36 PM 78.1 °F 73.0 °F 84% 30.03 in 10.0 mi Variable 3.5 mph - N/A   Mostly Cloudy
4:53 PM 77.0 °F 73.0 °F 88% 30.00 in 10.0 mi Variable 3.5 mph - 0.00 in Rain Light Rain
5:53 PM 79.0 °F 73.9 °F 84% 29.98 in 10.0 mi Variable 3.5 mph - 0.00 in   Clear
6:53 PM 79.0 °F 73.0 °F 82% 29.98 in 9.0 mi Calm Calm - N/A   Partly Cloudy
7:53 PM 78.1 °F 73.9 °F 87% 29.98 in 8.0 mi NNE 3.5 mph - N/A   Clear
8:53 PM 75.9 °F 73.9 °F 94% 29.99 in 9.0 mi North 4.6 mph - N/A   Mostly Cloudy
9:53 PM 75.0 °F 73.0 °F 94% 30.01 in 9.0 mi NNE 4.6 mph - N/A   Mostly Cloudy
10:53 PM 75.0 °F 73.0 °F 94% 30.02 in 9.0 mi Calm Calm - N/A   Overcast
11:53 PM 75.0 °F 72.0 °F 90% 30.02 in 10.0 mi ENE 6.9 mph - N/A   Overcast